Date,TemperatureHighF,TemperatureAvgF,TemperatureLowF,DewpointHighF,DewpointAvgF,DewpointLowF,HumidityHigh,HumidityAvg,HumidityLow,PressureMaxIn,PressureMinIn,WindSpeedMaxMPH,WindSpeedAvgMPH,GustSpeedMaxMPH,PrecipitationSumIn
2013-1-1,33,25,18,12,-4,-13,40,28,22,30.21,30.03,7,3,7,0.00
2013-1-2,32,22,14,-1,-9,-15,29,24,21,30.24,30.10,2,0,3,0.04
2013-1-3,40,29,20,3,-3,-10,27,24,21,30.34,30.14,6,2,10,0.00
2013-1-4,42,31,24,5,-3,-7,24,22,20,30.38,30.22,6,1,8,0.00
2013-1-5,42,34,26,5,0,-7,24,22,21,30.25,30.03,3,0,4,0.16
2013-1-6,40,33,23,3,-2,-10,23,22,20,30.32,30.02,8,3,10,0.04
2013-1-7,49,32,21,8,-2,-11,27,23,19,30.35,30.07,3,1,4,0.00
2013-1-8,57,39,25,13,3,-6,26,21,17,30.16,29.94,4,0,4,0.04
2013-1-9,57,46,38,19,10,3,37,23,17,30.39,30.11,6,1,7,0.00
2013-1-10,58,46,41,36,16,4,45,30,20,30.38,29.64,6,1,8,0.99
2013-1-11,65,53,46,33,23,14,46,32,18,29.80,29.65,5,1,5,0.05
2013-1-12,59,48,32,26,16,6,42,28,17,29.85,29.70,9,3,14,1.32
2013-1-13,32,26,18,11,-2,-13,41,29,22,30.30,29.79,8,4,10,0.00
2013-1-14,32,22,16,-4,-10,-13,26,23,20,30.44,30.30,4,2,6,0.00
2013-1-15,31,25,18,-2,-7,-11,28,24,20,30.36,30.07,6,3,9,0.00
2013-1-16,46,31,21,7,-3,-9,27,23,19,30.11,29.93,6,2,7,0.00
2013-1-17,42,35,25,5,0,-9,23,21,20,30.47,30.06,8,3,11,0.00
2013-1-18,56,36,23,12,0,-10,24,21,17,30.47,30.03,4,1,7,0.00
2013-1-19,68,48,36,19,8,1,22,19,15,30.06,29.78,9,3,10,0.00
2013-1-20,48,34,26,8,-2,-8,22,20,19,30.28,30.04,7,3,10,0.00
2013-1-21,28,22,15,-7,-11,-15,24,22,21,30.36,30.19,8,4,12,0.00
2013-1-22,23,17,14,-9,-14,-16,24,23,22,30.42,30.29,4,1,5,0.00
2013-1-23,48,28,14,8,-6,-16,24,22,19,30.33,30.02,5,1,7,0.00
2013-1-24,33,25,16,-3,-9,-15,24,21,20,30.54,30.16,8,3,10,0.00
2013-1-25,48,35,27,8,-1,-7,22,21,19,30.19,30.01,5,2,7,0.00
2013-1-26,45,32,26,6,-3,-8,22,21,19,30.32,30.12,4,1,6,0.00
2013-1-27,51,36,25,45,12,-9,83,39,20,30.26,29.83,3,2,4,0.20
2013-1-28,73,60,51,42,33,22,70,39,19,29.88,29.73,3,1,5,0.00
2013-1-29,65,60,53,34,31,22,47,33,23,29.75,29.31,10,2,10,1.82
2013-1-30,53,40,28,34,14,-6,53,35,21,29.86,29.28,11,4,14,0.13
2013-1-31,36,26,14,1,-6,-16,25,23,21,30.36,29.86,11,4,13,0.00
2013-2-1,38,23,14,0,-10,-16,24,22,19,30.45,30.16,6,2,7,0.00
2013-2-2,44,34,27,6,-1,-8,23,21,19,30.16,29.96,8,2,11,0.00
2013-2-3,42,30,25,4,-2,-9,31,24,20,30.13,29.92,8,2,12,0.00
2013-2-4,63,40,26,16,3,-8,23,20,16,29.98,29.64,9,3,11,0.04
2013-2-5,63,40,24,16,3,-9,26,21,16,30.06,29.75,7,2,13,0.00
2013-2-6,63,40,26,16,3,-7,25,21,16,30.17,29.96,4,1,4,0.00
2013-2-7,58,44,33,24,10,-1,39,24,17,30.00,29.70,8,2,9,0.04
2013-2-8,40,36,31,11,4,-2,32,26,21,30.31,29.96,7,3,10,0.00
2013-2-9,51,37,30,10,2,-3,29,22,19,30.31,29.94,4,2,5,0.13
2013-2-10,56,46,37,32,18,8,43,34,19,29.94,29.49,11,3,12,0.78
2013-2-11,57,43,34,13,5,-3,22,20,17,30.06,29.65,12,4,15,0.00
2013-2-12,52,38,27,11,1,-7,23,20,19,30.10,29.84,4,0,5,0.00
2013-2-13,62,44,37,16,6,1,22,20,16,29.87,29.66,7,2,9,0.00
2013-2-14,61,45,34,16,6,-1,23,20,16,29.99,29.73,7,2,11,0.00
2013-2-15,45,36,29,7,0,-6,23,21,20,30.21,29.96,8,3,9,0.00
2013-2-16,46,29,21,7,-6,-11,22,21,19,30.23,30.05,6,2,9,0.00
2013-2-17,60,37,22,15,0,-11,22,20,17,30.14,29.79,4,2,6,0.00
2013-2-18,57,45,34,24,8,0,37,22,17,29.82,29.47,10,3,11,0.04
2013-2-19,42,31,24,5,-4,-9,23,21,19,30.23,29.79,9,4,11,0.00
2013-2-20,30,24,18,-5,-9,-13,23,22,20,30.35,30.22,5,2,6,0.00
2013-2-21,32,27,19,5,-4,-13,31,25,21,30.27,29.73,7,2,8,0.00
2013-2-22,39,32,22,9,1,-11,33,26,20,30.02,29.70,7,2,8,0.00
2013-2-23,43,28,17,5,-5,-14,26,22,20,30.03,29.84,5,1,6,0.00
2013-2-24,53,33,19,10,-2,-13,25,21,18,30.07,29.93,3,0,3,0.16
2013-2-25,48,37,28,11,2,-4,37,23,19,30.01,29.49,10,2,15,0.38
2013-2-26,47,37,34,24,14,8,43,40,30,29.58,29.24,9,3,12,0.70
2013-2-27,36,34,32,10,7,4,37,32,30,29.85,29.58,7,4,11,0.04
2013-2-28,35,33,32,6,3,-1,31,27,22,30.03,29.79,5,3,6,0.00
2013-3-1,35,32,29,5,3,-4,34,29,23,30.16,30.00,6,3,7,0.04
2013-3-2,36,29,23,1,-4,-10,26,23,20,30.22,30.10,8,3,8,0.00
2013-3-3,48,32,18,8,-3,-13,25,22,19,30.17,29.94,3,0,3,0.00
2013-3-4,61,44,34,15,6,0,22,20,16,29.97,29.63,5,2,6,0.00
2013-3-5,44,36,32,12,3,-1,40,25,20,30.03,29.66,9,4,13,0.26
2013-3-6,45,34,26,6,-1,-9,23,22,20,30.29,30.03,9,4,13,0.00
2013-3-7,60,37,21,15,0,-11,25,21,17,30.35,30.18,4,1,6,0.00
2013-3-8,66,43,27,17,5,-6,25,20,15,30.36,30.11,4,1,5,0.00
2013-3-9,73,51,40,21,10,3,24,19,14,30.11,29.68,5,2,6,0.25
2013-3-10,56,53,46,27,19,11,38,27,17,29.70,29.55,8,2,13,0.86
2013-3-11,46,36,34,20,5,0,36,26,22,29.91,29.65,8,4,11,0.00
2013-3-12,54,39,29,12,2,-3,23,21,18,30.12,29.92,9,4,13,0.00
2013-3-13,47,35,28,7,-1,-7,22,20,19,30.33,30.12,8,4,12,0.00
2013-3-14,59,38,26,14,1,-8,22,20,17,30.32,29.98,4,1,6,0.00
2013-3-15,78,53,31,26,11,-2,25,19,13,30.01,29.52,3,0,4,0.00
2013-3-16,65,49,39,17,8,2,23,19,15,29.96,29.52,8,3,11,0.00
2013-3-17,40,36,33,14,9,4,39,31,24,30.03,29.70,5,2,6,1.41
2013-3-18,52,42,37,19,11,2,42,30,18,29.93,29.60,8,2,9,0.05
2013-3-19,51,40,29,10,2,-7,22,20,19,30.14,29.93,6,2,7,0.00
2013-3-20,41,33,26,4,-2,-8,23,21,20,30.19,30.03,8,3,11,0.00
2013-3-21,52,32,20,10,-3,-12,22,21,18,30.08,29.86,7,1,7,0.00
2013-3-22,51,38,31,10,1,-5,23,20,19,29.98,29.87,3,0,4,0.00
2013-3-23,65,46,37,17,7,1,22,20,15,29.97,29.68,6,2,6,0.00
2013-3-24,43,34,32,22,10,1,66,37,20,29.78,29.46,10,2,11,0.00
2013-3-25,36,32,30,20,14,10,52,45,41,30.13,29.73,7,2,10,0.08
2013-3-26,45,35,29,11,5,-7,42,29,20,30.28,30.10,6,2,9,0.25
2013-3-27,55,37,22,12,1,-9,26,21,18,30.35,30.19,4,1,6,0.00
2013-3-28,66,48,35,17,8,0,22,19,15,30.27,30.09,4,1,4,0.00
2013-3-29,74,52,39,21,12,4,29,20,13,30.17,30.02,4,1,5,0.00
2013-3-30,64,47,38,20,13,5,31,25,15,30.12,29.80,3,0,4,0.12
2013-3-31,73,57,47,29,20,11,38,25,14,29.82,29.68,6,2,10,0.03
2013-4-1,54,46,38,12,6,2,21,20,18,30.15,29.82,9,4,12,0.00
2013-4-2,62,41,28,15,3,-7,22,20,16,30.28,30.12,6,2,7,0.00
2013-4-3,68,44,31,19,5,-5,22,19,15,30.30,30.12,6,2,9,0.00
2013-4-4,69,48,32,19,7,-4,22,19,15,30.15,29.87,6,1,8,0.00
2013-4-5,75,54,37,25,11,1,22,18,13,30.08,29.89,5,1,8,0.00
2013-4-6,81,62,47,28,16,7,19,17,13,29.92,29.57,5,2,8,0.00
2013-4-7,91,68,52,32,19,10,18,16,12,29.82,29.62,4,1,6,0.00
2013-4-8,88,70,57,31,23,15,24,17,13,29.75,29.60,5,2,6,0.00
2013-4-9,83,69,62,29,21,15,19,16,14,29.74,29.61,6,1,7,0.00
2013-4-10,92,72,60,35,28,19,38,21,12,29.66,29.43,8,1,10,1.17
2013-4-11,61,48,40,37,15,3,41,28,19,29.66,29.49,7,3,9,0.04
2013-4-12,50,42,37,10,5,1,22,20,19,29.94,29.63,9,3,12,0.00
2013-4-13,72,51,35,20,9,0,22,19,14,30.00,29.75,7,1,8,0.00
2013-4-14,90,65,46,32,17,6,20,16,12,29.80,29.45,5,2,8,0.00
2013-4-15,78,64,54,26,19,14,23,18,14,29.76,29.57,6,1,9,0.00
2013-4-16,54,49,46,25,22,11,40,35,21,30.05,29.76,9,3,9,1.20
2013-4-17,89,65,49,39,28,23,40,27,13,30.01,29.53,4,1,6,0.00
2013-4-18,72,59,42,42,27,4,45,30,16,29.69,29.44,9,2,13,3.47
2013-4-19,57,44,39,13,6,2,21,20,17,29.99,29.66,9,4,15,0.00
2013-4-20,67,48,34,18,7,-3,22,19,15,30.23,29.99,4,1,6,0.00
2013-4-21,72,55,41,20,11,4,21,18,14,30.35,30.10,3,1,4,0.00
2013-4-22,81,60,42,28,15,4,21,17,13,30.17,29.80,4,1,4,0.00
2013-4-23,59,52,40,26,17,11,39,26,17,29.96,29.76,6,1,6,1.41
2013-4-24,64,46,38,17,12,4,40,27,16,30.17,29.90,6,2,11,0.12
2013-4-25,73,53,38,24,10,2,21,18,13,30.25,30.10,4,1,6,0.00
2013-4-26,64,53,47,17,11,7,24,19,16,30.28,30.13,2,1,4,0.00
2013-4-27,55,52,49,28,23,14,38,32,24,30.22,29.82,3,0,4,0.32
2013-4-28,58,54,49,31,25,17,42,33,22,29.89,29.76,4,1,4,0.00
2013-4-29,83,63,46,47,24,16,98,26,14,29.86,29.61,2,0,3,0.00
2013-4-30,87,72,62,30,24,17,21,16,13,29.81,29.63,3,1,3,0.00
2013-5-1,86,70,56,30,22,14,25,17,13,29.91,29.75,2,0,3,0.00
2013-5-2,73,61,46,28,21,14,35,22,15,30.04,29.87,6,2,9,0.62
2013-5-3,46,42,40,20,18,15,39,37,33,29.99,29.72,4,2,9,2.03
2013-5-4,56,46,40,22,16,7,40,31,17,29.90,29.72,3,0,3,0.00
2013-5-5,60,53,46,34,24,12,42,32,25,29.90,29.76,6,2,8,0.12
2013-5-6,67,60,53,27,20,15,33,22,15,29.87,29.76,9,2,10,0.00
2013-5-7,76,64,57,27,21,14,27,19,15,29.91,29.80,5,0,6,0.00
2013-5-8,79,66,54,28,22,15,29,20,14,29.91,29.77,4,0,4,0.00
2013-5-9,80,68,62,36,27,18,34,23,14,29.84,29.65,4,0,6,0.21
2013-5-10,114,62,57,78,26,15,54,27,17,29.85,29.63,7,2,10,0.12
2013-5-11,69,60,52,21,17,10,27,19,15,30.04,29.81,7,2,10,0.00
2013-5-12,66,53,43,17,11,4,20,18,15,30.13,29.99,6,2,9,0.00
2013-5-13,74,58,42,25,14,4,22,17,14,30.14,29.87,2,0,3,0.00
2013-5-14,93,74,58,33,23,14,18,15,11,29.91,29.60,4,1,7,0.00
2013-5-15,87,76,68,30,24,18,16,15,13,29.80,29.60,3,1,5,0.09
2013-5-16,80,71,64,29,24,17,20,17,14,29.78,29.65,2,0,4,0.00
2013-5-17,78,69,64,42,27,20,42,21,15,29.81,29.70,1,0,2,0.00
2013-5-18,81,71,64,46,35,23,49,29,14,29.84,29.65,1,0,2,0.00
2013-5-19,87,77,68,37,30,25,27,19,13,29.71,29.48,2,0,4,0.00
2013-5-20,77,70,63,45,34,20,46,27,15,29.75,29.50,6,0,9,0.77
2013-5-21,76,68,63,49,43,38,52,41,31,29.63,29.51,2,0,3,0.04
2013-5-22,75,67,63,43,31,18,48,28,16,29.72,29.51,4,1,6,0.00
2013-5-23,66,62,57,29,20,14,28,20,16,30.09,29.69,4,1,5,0.00
2013-5-24,119,59,49,53,19,10,49,23,12,30.28,30.02,1,0,1,0.00
2013-5-25,67,60,51,27,19,10,26,20,17,30.22,29.96,0,0,0,0.04
2013-5-26,80,69,58,33,26,17,39,21,15,30.06,29.80,0,0,0,0.04
2013-5-27,100,71,65,40,30,22,38,23,10,29.84,29.57,4,0,10,0.42
2013-5-28,80,72,66,71,40,30,98,33,20,29.75,29.61,3,0,3,0.08
2013-5-29,83,75,67,36,30,23,28,19,14,29.78,29.61,3,1,5,0.00
2013-5-30,79,73,65,39,32,23,34,23,16,29.75,29.61,3,1,4,0.41
2013-5-31,77,70,64,45,40,29,42,34,22,29.72,29.53,5,1,6,2.15
2013-6-1,75,67,64,51,41,28,51,40,23,29.72,29.54,3,0,5,0.58
2013-6-2,66,63,59,31,26,21,30,24,21,29.88,29.69,4,1,5,0.00
2013-6-3,70,63,59,24,22,18,25,21,17,29.97,29.80,2,0,2,0.00
2013-6-4,72,64,56,30,24,20,29,22,16,29.97,29.80,2,0,2,0.00
2013-6-5,77,68,62,36,30,23,34,25,15,29.87,29.65,2,0,3,0.04
2013-6-6,76,70,64,35,26,21,33,20,15,29.72,29.62,3,1,3,0.00
2013-6-7,124,66,59,52,23,16,28,20,10,29.76,29.65,6,1,7,0.00
2013-6-8,78,68,59,30,25,21,29,20,15,29.84,29.67,3,0,4,0.00
2013-6-9,75,67,64,42,32,20,44,29,17,29.81,29.63,4,0,5,0.08
2013-6-10,79,69,63,41,33,24,42,28,15,29.75,29.63,4,1,5,0.04
2013-6-11,87,75,64,42,33,27,35,23,13,29.84,29.64,3,0,3,0.00
2013-6-12,92,82,72,38,33,28,25,18,12,29.77,29.54,4,1,8,0.00
2013-6-13,83,76,69,30,26,19,22,16,14,29.80,29.55,6,2,7,0.00
2013-6-14,81,72,64,28,25,19,24,18,14,29.96,29.76,4,0,4,0.00
2013-6-15,86,74,67,40,28,22,33,19,13,29.96,29.74,4,0,5,0.00
2013-6-16,81,73,68,48,42,37,41,33,23,29.84,29.67,3,0,3,0.25
2013-6-17,80,72,66,51,44,33,44,37,23,29.78,29.64,6,0,6,1.33
2013-6-18,82,73,64,49,37,23,46,31,14,29.78,29.67,4,1,6,0.00
2013-6-19,81,73,66,36,29,23,30,20,14,29.90,29.77,3,1,3,0.00
2013-6-20,85,76,68,40,32,26,32,21,13,29.95,29.82,1,0,2,0.00
2013-6-21,87,79,71,41,34,27,32,21,13,29.95,29.78,2,0,4,0.00
2013-6-22,85,73,67,53,38,27,49,28,17,29.93,29.79,4,0,4,0.45
2013-6-23,84,73,68,47,40,27,38,31,18,29.93,29.73,8,0,11,0.78
2013-6-24,85,76,68,55,43,35,44,32,18,29.90,29.73,2,0,3,0.00
2013-6-25,87,80,74,42,36,32,30,21,16,29.77,29.60,3,0,6,0.00
2013-6-26,87,77,72,49,41,31,36,28,19,29.67,29.51,9,0,9,0.34
2013-6-27,89,79,72,46,36,28,37,23,13,29.71,29.55,4,1,7,0.00
2013-6-28,85,78,72,43,32,24,32,19,13,29.65,29.49,6,1,8,0.00
2013-6-29,79,71,66,28,24,18,23,18,15,29.56,29.43,6,2,9,0.13
2013-6-30,74,68,65,32,28,22,26,22,16,29.72,29.54,6,3,9,0.29
2013-7-1,75,70,64,26,23,17,20,17,16,29.81,29.69,7,3,10,0.00
2013-7-2,69,63,61,35,28,18,36,28,15,29.90,29.75,6,2,8,0.79
2013-7-3,77,69,62,38,31,23,36,26,15,29.96,29.80,3,0,4,0.00
2013-7-4,80,72,64,35,28,23,31,20,15,29.93,29.79,2,0,3,0.00
2013-7-5,80,72,66,43,33,26,34,24,17,29.93,29.79,2,0,2,0.00
2013-7-6,83,73,68,42,33,23,33,24,14,29.89,29.73,2,0,3,0.00
2013-7-7,86,76,66,42,32,27,32,21,13,29.90,29.76,2,0,3,0.00
2013-7-8,87,78,71,44,35,28,33,21,14,29.92,29.79,2,0,3,0.00
2013-7-9,89,81,74,42,35,28,29,19,13,29.86,29.72,2,0,4,0.00
2013-7-10,83,77,71,47,38,26,35,25,15,29.83,29.67,3,1,5,0.00
2013-7-11,80,74,67,35,27,22,30,18,15,29.89,29.77,5,1,8,0.23
2013-7-12,81,72,63,32,26,21,27,19,14,29.98,29.82,3,0,4,0.00
2013-7-13,74,67,63,32,25,20,26,21,17,29.96,29.87,4,0,4,0.00
2013-7-20,89,79,70,41,34,23,32,21,13,29.74,29.60,5,1,8,1.16
2013-7-21,78,74,71,48,44,41,39,35,31,29.77,29.64,1,0,2,0.04
2013-7-22,88,77,70,47,40,31,38,28,16,29.68,29.54,2,0,4,0.00
2013-7-23,88,79,72,39,33,24,29,19,13,29.71,29.56,6,1,6,0.00
2013-7-24,78,71,63,27,23,18,21,16,14,29.87,29.68,5,2,7,0.00
2013-7-25,79,70,62,30,24,17,26,18,15,29.96,29.84,4,0,4,0.00
2013-7-26,72,69,66,41,31,21,33,25,17,29.90,29.74,2,0,2,0.00
2013-7-27,74,68,62,39,27,15,34,23,15,29.84,29.74,6,2,7,0.08
2013-7-28,77,66,57,28,23,14,28,20,14,29.91,29.80,4,0,4,0.00
2013-7-29,72,68,62,35,28,19,30,23,17,30.02,29.87,1,0,2,0.00
2013-7-30,72,69,66,45,38,29,40,33,23,29.96,29.80,1,0,1,0.46
2013-7-31,80,73,69,49,41,27,44,33,17,29.86,29.73,6,1,8,0.00
2013-8-1,69,68,67,35,32,30,30,26,24,29.87,29.84,0,0,0,0.00
2013-8-4,76,72,65,32,28,24,26,20,15,30.02,29.89,1,0,2,0.00
2013-8-5,71,69,66,39,32,28,32,25,22,29.93,29.68,2,0,2,0.00
2013-8-6,83,75,70,47,39,30,37,28,16,29.74,29.61,2,0,2,0.00
2013-8-7,82,75,70,45,40,34,36,28,20,29.74,29.61,2,0,4,0.08
2013-8-8,79,75,71,46,41,35,36,30,22,29.77,29.67,4,1,6,0.00
2013-8-9,76,73,70,44,40,32,36,30,23,29.89,29.74,4,0,4,0.00
2013-8-10,83,74,68,37,31,23,30,20,14,29.96,29.85,5,1,5,0.00
2013-8-11,82,72,64,32,26,20,27,18,14,29.99,29.82,3,0,4,0.00
2013-8-12,77,72,68,44,35,23,33,26,16,29.89,29.71,2,0,2,0.04
2013-8-13,77,71,66,40,31,17,34,23,15,29.96,29.77,6,2,8,0.00
2013-8-14,73,64,57,26,20,14,25,18,15,30.03,29.92,4,0,5,0.00
2013-8-15,74,64,58,25,21,16,25,19,15,30.03,29.86,4,0,4,0.00
2013-8-16,74,66,59,27,22,18,25,19,16,30.00,29.90,4,0,6,0.00
2013-8-17,80,70,62,28,24,18,24,18,15,30.03,29.88,4,0,6,0.00
2013-8-18,80,71,65,38,28,21,33,21,15,30.02,29.85,3,0,4,0.08
2013-8-19,83,73,65,37,30,23,31,21,14,29.99,29.79,3,0,4,0.00
2013-8-20,85,75,67,39,30,24,32,20,13,29.96,29.82,2,0,4,0.00
2013-8-21,87,77,68,40,31,24,32,20,13,29.99,29.82,2,0,3,0.00
2013-8-22,87,79,71,36,30,25,24,17,13,29.95,29.79,4,0,6,0.00
2013-8-23,87,78,72,42,33,24,31,20,13,29.92,29.81,3,0,4,0.00
2013-8-24,88,77,69,36,31,24,28,19,13,30.02,29.89,2,0,4,0.00
2013-8-25,88,77,67,37,30,23,31,18,13,30.10,29.93,3,0,3,0.00
2013-8-26,91,80,74,40,33,27,29,18,12,30.04,29.84,3,0,5,0.00
2013-8-27,92,80,72,41,32,26,30,18,12,29.92,29.75,3,0,4,0.00
2013-8-28,94,81,71,33,29,24,23,16,11,29.86,29.72,4,0,4,0.00
2013-8-29,94,82,72,36,30,24,23,15,11,29.86,29.72,3,0,3,0.00
2013-8-30,95,82,74,37,31,26,23,16,11,29.80,29.60,2,0,4,0.00
2013-8-31,96,84,75,38,32,27,25,16,11,29.67,29.48,3,0,5,0.00
2013-9-1,88,81,76,35,29,25,20,15,13,29.64,29.54,5,0,6,0.00
2013-9-2,84,76,68,30,26,20,17,15,14,29.80,29.61,6,2,6,0.00
2013-9-3,83,72,62,29,23,16,24,16,14,29.90,29.74,3,0,4,0.00
2013-9-4,85,72,62,32,25,18,27,18,13,29.99,29.85,0,0,0,0.00
2013-9-5,85,73,63,32,26,19,26,18,13,30.02,29.91,0,0,0,0.00
2013-9-6,87,75,66,37,28,22,31,19,13,30.04,29.82,0,0,0,0.00
2013-9-7,93,78,66,33,28,22,24,17,12,29.90,29.69,2,0,1,0.00
2013-9-8,80,75,71,46,35,23,33,24,15,29.83,29.67,4,0,4,0.00
2013-9-9,94,82,73,43,35,27,32,21,11,29.77,29.66,3,0,3,0.00
2013-9-10,96,83,74,34,30,25,22,15,11,29.89,29.76,3,0,5,0.00
2013-9-11,94,82,71,33,29,24,22,15,11,29.95,29.78,3,0,1,0.00
2013-9-12,86,77,70,32,27,19,22,16,13,29.89,29.76,7,2,7,0.00
2013-9-13,76,67,61,26,19,14,16,15,14,29.97,29.86,7,2,10,0.41
2013-9-14,77,63,52,26,16,10,21,17,13,30.03,29.83,3,0,5,0.00
2013-9-15,82,68,57,28,20,12,17,16,13,29.92,29.79,3,0,5,0.00
2013-9-16,71,65,60,28,23,15,25,20,15,30.12,29.92,5,2,7,0.00
2013-9-17,71,65,60,28,22,18,22,19,17,30.12,29.90,4,0,4,0.00
2013-9-18,84,72,66,48,32,25,43,24,14,29.90,29.73,4,0,6,0.21
2013-9-19,87,78,72,42,33,27,32,20,13,29.83,29.64,3,0,3,0.00
2013-9-20,76,69,62,41,35,22,35,29,18,29.75,29.68,4,0,5,0.41
2013-9-21,72,62,55,24,19,14,28,20,14,29.82,29.68,7,1,8,0.00
2013-9-22,75,62,52,26,19,12,27,19,14,29.88,29.74,4,0,5,0.00
2013-9-23,76,64,54,26,19,13,26,18,14,29.88,29.74,2,0,3,0.00
2013-9-24,79,67,58,28,22,14,22,18,15,29.79,29.58,1,0,1,0.00
2013-9-25,81,71,65,34,28,21,30,21,14,29.69,29.60,4,0,5,0.00
2013-9-26,81,71,62,34,26,18,29,19,14,29.84,29.69,2,0,2,0.00
2013-9-27,82,71,62,31,24,18,25,18,14,29.96,29.79,1,0,2,0.00
2013-9-28,83,72,64,30,23,16,24,16,14,29.90,29.73,3,0,5,0.00
2013-9-29,74,65,59,31,24,14,30,21,15,29.94,29.74,5,1,6,0.00
2013-9-30,76,65,56,34,25,15,33,23,15,29.85,29.68,2,0,2,0.42
2013-10-1,80,70,63,39,32,24,33,25,15,29.87,29.73,2,0,3,0.00
2013-10-2,81,72,69,42,35,24,33,26,14,29.89,29.73,2,0,3,0.00
2013-10-3,84,75,68,39,32,24,32,22,14,29.80,29.67,3,0,6,0.00
2013-10-4,84,75,69,40,31,24,32,20,14,29.80,29.67,4,0,4,0.00
2013-10-5,74,70,56,41,32,16,32,24,18,29.77,29.62,3,0,5,0.00
2013-10-6,59,55,51,21,15,11,26,20,17,29.76,29.67,4,1,6,0.00
2013-10-7,72,58,52,20,13,10,18,17,14,30.00,29.76,5,1,5,0.08
2013-10-8,73,60,50,25,17,10,27,18,14,30.10,29.92,2,0,2,0.00
2013-10-9,75,61,49,26,16,10,26,18,14,30.06,29.89,2,0,3,0.00
2013-10-10,78,66,56,30,22,15,28,19,14,30.02,29.80,2,0,4,0.00
2013-10-11,79,66,56,29,22,16,29,19,14,29.91,29.71,2,0,3,0.00
2013-10-12,76,66,61,37,24,15,35,21,14,30.03,29.75,3,1,4,0.00
2013-10-13,72,61,51,24,15,10,19,16,14,30.25,30.03,4,1,5,0.21
2013-10-14,66,59,51,17,14,10,19,17,15,30.22,29.90,3,0,3,0.00
2013-10-15,66,62,57,55,33,15,71,35,16,29.90,29.72,2,0,4,0.66
2013-10-16,61,54,48,25,15,8,29,22,16,29.92,29.82,5,1,6,0.00
2013-10-17,64,54,48,22,15,8,28,21,15,29.89,29.75,4,0,5,0.04
2013-10-18,62,53,46,16,11,6,22,18,16,29.95,29.83,4,1,5,0.00
2013-10-19,49,44,42,21,12,6,34,28,19,29.93,29.83,3,1,6,0.21
2013-10-21,54,50,44,12,9,5,20,19,18,29.96,29.88,4,1,4,0.00
2013-10-22,60,47,39,15,8,2,23,20,17,29.99,29.67,7,1,13,0.05
2013-10-23,50,44,38,10,5,2,21,20,19,30.08,29.87,7,2,8,0.00
2013-10-24,49,42,35,9,4,-2,23,20,19,30.30,30.02,6,2,9,0.00
2013-10-25,55,42,31,12,3,-5,23,20,18,30.46,30.11,2,0,4,0.00
2013-10-26,66,51,41,17,10,4,21,19,15,30.11,29.84,4,1,6,0.00
2013-10-27,60,46,35,15,7,-2,22,19,17,30.06,29.88,2,0,3,0.00
2013-10-28,66,51,38,17,9,2,21,19,15,30.13,29.93,3,0,3,0.00
2013-10-29,57,53,49,30,18,9,36,26,19,30.16,29.94,1,0,1,0.32
2013-10-30,68,63,57,40,34,30,39,34,28,29.94,29.69,1,0,2,0.04
2013-10-31,65,61,50,40,34,25,40,37,33,29.69,29.21,4,0,6,0.83
2013-11-1,62,53,49,26,19,10,39,27,16,29.77,29.53,4,1,6,0.00
2013-11-2,54,49,44,12,8,5,22,19,18,30.11,29.71,4,1,8,0.00
2013-11-3,58,48,36,16,9,1,29,21,17,30.23,30.03,2,0,2,0.00
2013-11-4,55,55,55,12,12,12,18,18,18,30.13,30.00,1,0,2,0.00
2013-11-5,55,55,55,12,12,12,18,18,18,30.19,29.88,0,0,1,0.20
2013-11-6,55,55,55,12,12,12,18,18,18,30.16,29.76,5,1,6,0.46
2013-11-7,55,55,55,12,12,12,18,18,18,30.31,30.13,3,0,4,0.00
2013-11-8,55,55,55,12,12,12,18,18,18,30.28,29.94,1,0,3,0.00
2013-11-9,55,55,55,12,12,12,18,18,18,30.09,29.94,3,0,5,0.00
2013-11-10,55,55,55,12,12,12,18,18,18,30.34,30.09,4,1,5,0.00
2013-11-11,55,55,55,12,12,12,18,18,18,30.34,30.00,7,1,12,0.04
2013-11-12,55,55,55,12,12,12,18,18,18,30.64,30.34,7,2,14,0.00
2013-11-13,55,55,55,12,12,12,18,18,18,30.58,30.19,2,0,3,0.00
2013-11-14,55,55,55,12,12,12,18,18,18,30.22,29.94,3,0,6,0.00
2013-11-15,55,55,55,12,12,12,18,18,18,29.97,29.82,3,0,3,0.00
2013-11-16,55,55,55,12,12,12,18,18,18,29.82,29.52,3,1,4,0.25
2013-11-17,55,55,55,12,12,12,18,18,18,29.85,29.28,11,3,12,0.04
2013-11-18,55,55,55,12,12,12,18,18,18,30.19,29.82,8,2,9,0.00
2013-11-19,55,55,55,12,12,12,18,18,18,30.25,30.09,3,0,4,0.00
2013-11-20,55,55,55,12,12,12,18,18,18,30.13,29.91,2,0,3,0.04
2013-11-21,55,55,55,12,12,12,18,18,18,30.06,29.94,1,0,2,0.21
2013-11-22,55,55,55,12,12,12,18,18,18,30.43,30.06,6,3,8,0.04
2013-11-23,55,55,55,12,12,12,18,18,18,30.61,30.40,8,4,11,0.00
2013-11-24,55,55,55,12,12,12,18,18,18,30.64,30.31,6,1,6,0.00
2013-11-25,55,55,55,12,12,12,18,18,18,30.34,30.00,4,0,6,0.00
2013-11-26,55,55,55,12,12,12,18,18,18,30.09,29.94,8,2,13,0.00
2013-11-29,55,35,32,42,25,22,81,65,45,30.36,30.27,0,0,0,0.00
2013-11-30,60,41,26,41,32,24,93,73,47,30.28,29.95,3,0,4,0.00
2013-12-1,59,45,35,44,37,32,94,75,54,30.05,29.78,2,0,3,0.00
2013-12-2,59,46,36,49,40,33,97,83,66,29.78,29.52,3,0,3,0.00
2013-12-3,62,51,45,57,49,44,98,93,76,29.61,29.51,3,0,4,0.00
2013-12-4,66,55,43,61,51,35,98,87,70,29.75,29.39,6,1,7,0.00
2013-12-5,42,28,22,35,21,14,92,76,63,30.20,29.75,6,3,8,0.00
2013-12-6,23,20,15,20,15,6,92,80,63,30.51,30.20,8,4,9,0.00
2013-12-7,24,18,14,15,9,5,80,69,59,30.67,30.35,5,2,6,0.00
2013-12-8,30,25,20,27,22,15,97,90,77,30.38,29.92,6,1,6,0.00
2013-12-9,28,25,21,27,17,11,96,73,61,30.26,29.98,5,2,8,0.00
2013-12-10,36,25,17,21,16,11,86,69,52,30.24,30.15,6,2,10,0.00
2013-12-11,32,23,14,21,13,0,91,66,48,30.58,30.23,8,2,13,0.00
2013-12-12,36,23,14,22,11,0,74,61,52,30.58,30.19,3,0,3,0.00
2013-12-13,33,28,21,32,25,15,98,86,71,30.20,29.85,2,0,3,0.13
2013-12-14,34,32,27,34,30,24,98,96,88,30.07,29.73,9,2,10,0.12
2013-12-15,36,29,24,31,24,19,94,84,76,30.14,29.92,6,2,7,0.00
2013-12-16,40,33,27,33,29,26,97,87,71,30.04,29.87,4,1,5,0.03
2013-12-17,41,33,25,31,25,20,94,75,56,30.19,30.04,6,2,8,0.04
2013-12-18,48,35,24,36,27,18,86,72,53,30.23,29.84,4,1,9,0.09
2013-12-19,60,49,40,51,45,36,94,85,69,29.87,29.65,4,1,9,0.00
2013-12-20,68,53,37,62,50,36,98,90,69,29.76,29.53,6,2,9,0.25
2013-12-21,37,34,32,36,34,32,98,98,98,29.76,29.46,6,2,9,0.95
2013-12-22,35,33,28,34,31,21,98,93,77,30.19,29.55,9,3,9,0.04
2013-12-23,28,23,14,22,14,3,82,69,56,30.52,30.16,6,3,7,0.00
2013-12-24,27,21,14,11,7,2,64,55,46,30.54,30.26,3,2,5,0.00
2013-12-25,38,31,20,29,22,10,86,71,63,30.29,30.15,6,2,8,0.00
2013-12-26,50,34,24,35,26,21,95,76,46,30.31,30.11,3,1,5,0.00
2013-12-27,54,37,27,36,28,22,88,70,48,30.33,30.12,3,0,4,0.00
2013-12-28,56,41,30,38,29,25,83,65,46,30.16,29.78,3,1,6,0.00
2013-12-29,41,30,17,31,20,4,80,68,55,30.18,29.76,7,3,13,0.00
2013-12-30,31,20,10,12,5,-2,55,51,41,30.31,30.10,5,2,6,0.00
2013-12-31,45,32,22,26,17,11,67,54,44,30.32,30.08,5,2,7,0.00
2014-1-1,50,36,25,32,26,21,90,67,47,30.10,29.87,7,1,10,0.00
2014-1-2,25,18,10,22,9,1,89,68,54,30.40,29.95,9,4,14,0.00